Wind_Speed
4 7 7 7 8 8 9 11 13 14 15 16 15 14 14 14 13 14 14 12 11 13 15 16 18 20 19 16 15 17 18 18 18 20 21 21 20 20 21 22 23 23 22 20 17 19 23 27 29 30 31 31 26 23 24 26 28 29 31 34 37 38 38 37 38 37 33 34 34 31 31 31 27 24 22 21 20 18 17 18 17 16 17 18 16 17
4 7 7 8 9 10 11 11 12 14 14 14 13 12 13 12 12 14 15 13 12 12 14 17 19 20 19 17 16 17 18 18 18 19 21 23 23 23 23 24 25 24 23 21 18 19 24 29 30 31 33 32 28 25 24 26 28 29 30 33 35 37 39 39 39 38 34 34 36 35 38 38 32 28 25 22 20 20 18 19 19 16 17 21 19 16
5 6 6 8 9 10 11 11 12 13 13 12 10 11 11 10 11 13 14 13 11 10 12 16 17 18 19 18 17 17 17 19 22 23 23 24 25 25 26 26 26 26 25 23 20 21 25 30 32 33 34 33 31 28 26 26 28 30 31 33 35 37 39 39 38 36 34 36 38 39 42 41 38 36 31 22 19 22 23 21 19 16 17 22 20 16
6 6 8 9 9 10 12 11 11 11 11 10 9 9 10 10 11 10 9 9 8 9 12 16 15 15 18 18 19 20 22 24 26 26 26 26 27 28 28 28 27 27 27 25 23 23 25 30 35 37 36 34 32 30 27 26 29 32 32 33 35 38 39 38 37 34 35 40 38 38 42 42 40 35 28 22 18 21 25 22 19 16 19 23 20 16
10 10 8 9 9 10 11 10 10 10 8 10 10 10 11 12 13 10 9 9 10 12 15 16 14 12 15 17 16 17 21 23 24 25 26 28 29 29 30 30 29 28 28 26 25 25 25 30 35 37 38 35 32 32 31 29 31 32 32 32 34 38 39 38 37 34 37 40 34 31 34 34 32 26 22 21 19 20 24 23 20 19 20 24 21 17
9 6 4 9 10 10 11 10 10 9 8 9 10 9 10 13 13 13 13 11 9 10 9 9 10 10 11 12 10 8 11 14 16 19 22 25 27 29 29 31 31 31 28 26 24 24 24 29 34 36 38 36 33 34 34 32 32 33 33 31 32 36 38 39 37 35 39 42 36 31 31 29 27 25 24 26 26 26 26 24 23 22 23 24 22 20
4 5 5 10 11 10 11 10 9 8 8 8 4 4 8 11 12 12 12 10 8 8 5 4 8 10 10 11 9 9 10 11 13 15 17 20 24 26 29 31 32 31 30 27 25 24 23 26 35 39 39 38 36 35 35 34 33 35 34 32 32 33 36 39 37 37 41 45 43 36 34 36 35 34 35 35 34 32 30 27 25 25 25 24 22 21
3 9 9 10 11 10 9 7 5 4 7 6 4 4 9 12 12 12 12 9 8 10 11 10 11 10 10 11 11 11 13 14 16 16 16 18 21 24 27 30 31 31 31 28 25 25 24 25 35 41 40 38 35 31 32 33 35 37 34 32 35 33 34 38 39 41 42 44 46 41 36 35 36 39 41 38 36 35 33 30 27 27 25 23 22 22
6 11 11 10 10 8 8 7 5 4 8 7 7 8 11 11 12 12 11 9 9 10 11 10 10 10 10 10 11 12 14 15 16 16 16 16 20 23 26 29 30 30 30 27 24 24 25 26 33 38 36 35 32 29 32 35 35 37 33 31 35 34 34 38 40 42 39 38 45 46 40 34 32 37 40 38 37 37 35 32 30 27 22 20 22 23
10 12 11 9 7 7 9 8 5 5 8 7 8 10 11 11 12 11 9 8 9 9 12 11 9 9 9 8 8 9 11 12 11 12 13 14 18 21 23 26 29 29 28 26 23 21 22 25 29 31 31 31 30 30 33 34 34 36 33 29 34 36 35 37 39 41 37 35 44 50 47 42 39 39 39 39 38 37 35 33 32 28 21 19 23 24
13 10 6 4 6 8 9 9 7 7 9 9 9 10 11 10 10 9 8 7 7 9 12 12 10 10 10 7 5 5 6 6 6 7 8 10 16 20 22 24 27 28 27 25 22 20 19 22 26 27 26 27 28 28 29 30 32 36 35 32 34 36 35 37 38 39 35 35 46 52 47 41 40 41 42 40 37 36 35 34 33 30 24 21 22 23
10 5 2 3 4 7 8 9 8 6 8 8 7 7 8 7 6 6 6 5 7 9 8 9 9 10 10 6 4 3 3 4 6 7 7 8 11 16 20 23 25 26 27 25 22 20 19 22 25 24 22 23 25 26 28 29 30 33 35 35 35 35 35 37 38 38 36 36 45 51 45 37 34 39 44 42 38 36 34 34 33 31 27 23 22 24
9 4 3 3 1 4 6 8 6 4 5 5 6 6 6 6 4 5 5 4 7 9 8 8 8 9 10 11 12 11 10 10 10 10 10 10 10 12 16 21 24 25 26 24 22 20 19 21 24 23 20 20 24 27 28 29 30 32 35 35 36 36 36 36 37 38 37 36 42 48 45 36 30 37 45 42 37 37 35 34 34 33 30 27 26 26
8 3 3 0 2 1 3 7 5 3 4 4 5 4 5 5 4 5 6 5 7 8 7 6 6 9 10 9 10 11 12 11 11 12 13 14 13 13 14 18 23 24 23 23 21 19 18 19 23 23 20 19 23 26 27 28 30 33 37 36 35 35 35 34 35 36 36 35 37 42 41 35 31 35 42 41 37 37 37 36 36 34 32 30 30 29
8 4 1 3 4 0 2 7 6 5 6 7 5 4 5 5 5 6 6 6 8 9 8 4 4 8 8 6 7 8 9 9 9 11 11 13 14 15 15 16 21 23 23 24 23 21 18 18 20 22 21 19 21 25 28 28 29 33 38 38 36 36 35 34 32 34 35 34 35 36 35 33 30 29 35 41 41 40 40 38 37 36 34 33 33 30
9 7 1 2 4 3 6 8 5 6 5 4 3 4 4 4 4 6 8 10 11 12 10 7 7 8 10 12 13 11 10 9 9 9 9 10 11 12 14 16 19 23 24 24 24 22 19 18 18 19 20 20 20 24 28 29 29 32 37 39 38 38 37 36 34 33 33 34 34 33 31 30 29 26 28 35 39 40 39 38 39 38 35 32 30 27
7 8 4 4 6 4 6 9 4 3 3 3 2 2 2 3 4 6 9 10 10 10 8 7 9 9 9 10 8 7 8 7 6 8 8 9 9 11 13 14 15 20 25 25 24 22 18 17 18 18 18 19 20 23 27 29 29 31 36 39 38 36 36 38 39 34 32 33 33 32 29 28 28 25 24 25 30 34 33 32 37 39 34 28 25 23
4 10 8 4 5 3 2 6 2 5 4 4 2 4 5 4 4 5 5 5 6 8 7 8 11 11 8 5 3 4 5 4 3 5 6 7 9 11 13 14 14 16 21 24 23 21 17 16 19 19 18 19 21 23 26 28 29 31 34 36 37 36 35 41 45 40 34 34 33 32 30 28 28 25 24 24 24 28 29 29 34 35 31 27 25 24
2 9 6 1 3 7 3 4 2 5 7 5 5 7 5 3 3 3 3 5 7 8 8 8 10 10 8 6 6 6 6 6 7 6 5 5 7 10 13 15 16 15 17 20 20 19 17 16 18 21 21 19 20 22 24 26 28 31 35 36 36 36 36 41 45 43 38 35 32 31 29 28 28 25 24 24 23 25 30 30 30 31 29 27 26 25
2 5 4 1 3 6 3 2 5 2 3 4 5 5 2 3 4 3 3 5 7 7 8 9 9 7 5 7 8 8 7 9 11 10 8 7 6 8 11 14 16 17 17 18 18 18 17 17 17 20 22 21 21 21 22 25 27 30 34 37 37 36 36 39 41 42 41 35 29 29 29 28 27 25 25 24 23 26 29 28 26 27 27 27 26 26
2 2 5 7 7 5 2 4 6 6 4 2 4 6 3 3 3 3 5 5 5 6 7 8 9 7 6 7 7 9 11 14 15 14 12 10 8 8 10 12 14 16 17 17 18 17 17 18 18 19 21 22 20 20 21 25 27 28 30 34 37 38 38 38 38 40 41 35 29 28 29 29 29 28 26 23 23 27 26 24 23 23 23 25 25 26
3 2 6 9 10 6 4 6 4 5 6 4 5 7 7 6 5 5 5 2 3 5 6 8 9 8 5 4 5 11 15 17 18 17 15 14 14 11 10 11 13 15 17 17 17 17 17 18 19 20 21 22 22 21 22 24 25 27 28 30 33 37 40 39 38 39 38 34 30 28 28 29 31 31 27 22 24 26 23 22 22 21 22 24 25 27
5 3 6 8 9 5 5 6 3 3 5 3 2 4 6 6 6 6 6 4 4 6 7 8 8 6 2 2 7 13 15 17 19 17 15 16 18 17 14 13 13 14 16 16 17 17 17 17 20 21 23 24 24 23 23 24 25 26 28 30 30 33 38 40 40 41 37 32 31 30 29 31 31 28 24 22 24 25 23 23 23 23 25 26 27 27
7 4 5 8 6 1 5 4 3 2 4 3 1 3 5 6 7 7 7 7 6 6 7 6 7 6 4 6 12 16 17 18 18 18 17 17 19 20 19 16 16 16 16 17 17 18 18 17 18 22 24 25 24 22 23 24 25 26 28 30 31 31 33 37 41 43 40 36 34 31 31 32 28 23 20 22 25 25 24 24 24 25 26 26 26 27
7 4 6 9 6 2 1 1 1 0 4 4 3 3 4 7 10 9 6 6 4 4 7 7 8 8 8 12 16 17 18 17 16 19 20 18 19 21 22 21 19 19 19 19 18 18 19 19 19 22 24 26 24 23 24 24 24 27 28 29 32 32 32 34 37 41 42 40 38 36 34 29 23 20 20 22 24 25 25 24 24 24 24 24 26 28
6 4 5 6 6 7 6 5 4 5 6 5 4 5 6 10 12 9 6 5 4 6 9 8 9 12 14 17 19 18 18 19 19 20 20 19 19 21 23 23 22 21 20 20 20 19 20 20 21 22 24 26 26 25 25 24 24 26 28 29 31 32 32 32 33 36 40 41 41 41 42 34 22 19 21 23 24 24 23 22 22 22 21 21 23 25
4 3 3 2 4 7 8 7 7 7 6 5 7 10 11 13 13 10 7 6 8 10 10 8 9 16 20 21 21 21 20 21 20 18 18 19 19 20 22 24 24 23 21 21 21 21 21 21 22 22 24 27 28 27 26 25 25 25 27 29 31 31 31 30 30 32 36 38 38 39 42 40 28 20 21 25 25 23 20 20 21 22 21 20 20 22
4 4 7 4 5 8 9 11 11 9 5 3 6 12 14 14 14 12 8 9 10 10 9 10 13 17 19 20 23 24 23 22 20 17 17 19 20 20 20 23 24 25 24 22 22 22 22 22 23 23 24 26 28 28 27 26 25 25 28 30 31 31 33 32 31 32 32 33 35 35 39 43 36 24 22 26 26 23 20 19 21 23 23 21 21 22
4 5 9 7 8 9 10 11 9 7 3 4 2 13 16 16 16 13 11 11 10 8 10 16 19 18 16 17 22 24 23 22 22 21 20 20 21 20 20 21 24 26 26 24 23 23 23 23 24 24 24 25 28 29 27 26 25 24 27 29 30 32 35 35 35 34 31 28 31 34 37 41 38 28 25 28 28 25 22 19 20 22 22 21 21 21
5 5 8 9 8 8 10 10 7 5 2 6 3 15 16 16 17 13 11 11 10 11 13 17 21 18 13 14 21 26 26 25 25 24 20 17 17 19 20 20 22 25 27 26 24 24 24 24 25 26 25 25 27 29 28 27 26 25 26 28 29 32 35 36 35 35 32 27 28 32 36 39 36 27 26 30 30 25 21 18 20 22 20 19 20 20
7 7 9 9 5 4 8 11 11 8 1 6 6 18 19 20 20 15 11 11 12 12 13 16 18 15 12 15 22 28 29 26 24 21 17 14 13 14 16 17 20 24 27 27 25 25 25 25 26 27 27 26 27 28 29 27 26 28 30 29 28 29 33 36 35 34 34 30 26 28 35 40 34 25 24 30 30 23 20 21 24 24 20 19 19 19
8 8 8 7 4 3 7 10 12 10 1 5 8 21 23 21 20 18 13 13 14 13 15 18 15 12 15 18 20 25 27 25 22 20 18 17 15 14 12 13 18 24 28 27 26 26 26 26 27 27 27 28 27 27 28 26 25 28 32 32 29 27 30 35 35 32 31 28 22 22 30 35 31 24 24 29 29 25 22 23 25 24 21 20 19 20
9 8 6 7 6 5 8 10 12 10 2 2 9 19 21 19 20 18 16 17 15 9 11 17 15 14 20 21 20 24 25 23 22 21 21 19 17 16 15 14 16 23 29 29 27 28 27 27 28 28 27 28 28 28 27 26 25 28 33 34 31 28 29 34 36 33 31 29 23 21 26 31 30 26 25 26 27 26 24 23 24 24 24 23 21 21
11 9 6 6 6 7 10 10 8 7 5 4 7 14 19 21 22 20 20 21 15 7 9 14 15 18 21 19 19 21 21 23 25 25 24 21 18 19 21 20 19 21 27 30 28 28 28 26 26 27 26 26 27 26 24 23 22 23 26 29 28 27 27 30 32 31 29 28 25 21 23 28 29 28 27 26 24 24 25 26 27 26 24 22 21 21
11 9 6 6 6 7 9 7 5 6 7 6 8 15 19 19 19 19 20 17 11 13 19 21 22 23 22 21 24 25 29 34 29 19 16 16 17 21 25 24 20 20 25 30 29 29 29 27 26 27 25 24 26 25 21 20 19 18 20 22 23 24 24 25 28 29 26 25 25 24 24 26 28 29 30 28 25 25 25 26 27 25 23 21 21 22
10 8 5 6 6 7 7 7 6 5 4 6 10 15 17 16 16 19 18 13 10 16 22 24 24 24 23 27 34 37 39 38 23 12 20 30 31 28 25 22 19 19 24 31 32 30 30 29 26 26 26 24 25 25 21 18 17 18 18 18 20 21 20 22 26 27 26 24 25 28 29 29 29 29 28 26 25 24 24 24 24 23 22 21 22 22
9 7 6 6 6 7 8 7 5 4 3 7 13 17 20 20 19 18 16 12 10 16 22 23 23 25 26 31 40 45 41 30 15 15 31 43 41 33 25 16 14 18 24 31 33 29 29 29 24 24 26 25 23 22 20 18 16 16 16 16 17 19 19 21 23 25 26 25 25 26 28 28 28 26 25 25 25 25 25 25 23 22 21 20 21 22
9 8 8 7 6 7 8 6 7 7 6 10 17 23 27 28 25 18 12 8 8 20 30 26 20 23 24 26 36 41 34 21 11 15 33 44 39 30 21 10 6 16 23 31 33 27 26 27 23 22 25 24 21 19 19 18 15 14 15 16 16 18 20 20 21 22 26 26 25 25 25 25 26 26 26 26 26 26 26 24 23 22 21 20 20 21
10 8 8 7 6 8 8 6 8 7 6 12 21 26 31 36 31 18 9 5 10 26 38 30 20 22 22 24 29 27 20 17 12 16 34 44 37 26 17 9 7 14 21 29 32 27 23 21 20 20 22 20 18 17 17 17 15 13 15 15 15 17 19 20 19 21 24 26 25 24 23 23 23 24 25 26 26 26 25 24 24 23 21 20 20 20
11 8 8 9 8 9 9 6 6 3 4 15 23 26 34 39 30 14 6 7 17 32 40 32 25 25 27 29 26 17 13 17 16 21 35 40 34 27 18 11 13 16 21 27 28 25 20 18 17 18 18 15 15 15 14 14 14 14 14 15 15 17 18 19 19 18 20 23 23 22 22 23 23 24 24 25 26 26 25 24 23 21 21 22 21 19
9 8 9 9 8 10 9 7 6 2 4 17 26 29 35 33 19 8 8 13 25 35 39 36 32 32 34 33 25 16 18 24 25 29 38 39 36 31 21 12 14 16 19 23 25 23 19 17 16 15 14 12 12 12 13 13 14 14 14 15 16 17 17 17 18 18 19 21 22 22 23 24 24 25 25 24 24 23 22 21 19 19 23 25 24 22
9 7 9 9 8 9 8 8 7 2 7 22 29 28 27 19 7 7 15 24 31 34 37 39 36 35 39 38 32 29 33 38 39 40 40 37 36 35 26 14 12 15 16 17 20 20 19 19 17 14 13 13 12 11 12 13 14 14 14 15 15 15 16 16 18 19 20 21 21 22 23 23 23 23 22 21 22 20 19 18 18 20 25 27 25 25
9 7 7 8 7 7 7 8 7 4 11 26 27 18 15 14 11 16 23 29 33 35 36 38 37 35 39 41 40 39 41 44 46 44 40 37 36 35 31 22 14 11 13 15 16 17 18 19 17 15 14 14 13 12 12 13 14 14 14 14 14 14 14 15 16 19 20 20 20 21 21 21 20 19 18 18 20 20 19 20 21 24 28 28 26 24
8 7 6 6 6 7 7 7 6 8 15 23 20 13 14 18 22 26 25 26 32 35 35 36 36 36 39 41 41 41 44 48 47 44 42 40 37 35 33 27 21 14 9 11 13 16 17 15 14 14 14 14 13 12 12 14 15 15 14 15 14 14 14 14 15 16 17 18 18 19 20 20 19 19 18 18 20 21 22 23 24 27 30 29 26 24
8 8 4 4 6 6 3 5 10 14 17 18 18 19 22 25 28 31 29 27 30 34 35 36 37 36 38 40 40 40 45 49 48 44 43 42 39 37 34 29 24 18 13 10 9 14 16 14 14 14 13 13 13 13 13 14 15 16 16 15 15 15 15 15 15 16 16 16 17 18 19 20 20 20 18 18 20 23 24 25 27 28 28 26 25 25
6 7 3 4 6 4 2 5 15 18 16 17 20 22 24 26 29 32 31 29 31 34 35 34 34 35 37 39 40 40 42 46 48 45 43 42 39 36 36 33 27 19 13 12 10 9 11 12 15 15 14 14 14 14 13 14 15 16 16 16 16 17 17 16 16 15 15 15 16 18 20 22 21 20 19 17 17 19 23 25 25 25 24 23 22 25
5 8 6 5 7 6 3 8 17 17 14 18 23 24 24 27 29 31 31 29 31 35 34 30 30 32 35 38 39 40 40 45 50 49 45 42 40 37 36 35 31 24 18 12 10 9 8 9 12 14 14 15 15 14 14 14 14 15 15 16 17 17 16 16 15 14 14 16 17 18 21 22 21 20 19 17 16 18 22 25 27 27 26 24 24 27
5 8 8 6 7 7 6 12 19 18 14 18 23 25 25 27 29 30 30 29 31 34 34 30 28 31 34 37 38 38 39 43 48 49 46 44 42 37 35 35 32 28 22 14 9 9 9 8 9 11 13 13 14 15 14 13 13 13 14 15 15 14 13 14 14 14 14 16 17 17 19 20 21 20 19 20 22 24 27 30 33 33 33 31 29 30
6 7 7 7 7 6 6 13 18 15 12 18 25 26 25 27 29 30 30 29 31 34 34 30 28 28 31 34 36 36 37 39 43 46 47 46 44 40 36 35 34 30 24 19 13 9 9 10 9 9 9 10 12 14 14 13 13 13 13 13 12 12 12 13 13 14 15 17 18 18 18 18 19 20 21 24 28 30 30 32 33 33 32 32 32 31
6 6 6 7 7 6 7 13 16 11 10 18 26 26 25 28 29 29 30 30 30 33 33 30 27 26 28 30 32 34 34 36 38 43 45 46 45 43 39 36 36 34 28 23 19 13 8 9 10 11 10 9 9 11 11 11 12 12 11 11 11 11 12 13 13 14 16 16 17 17 17 17 18 20 24 28 31 32 32 33 32 31 30 31 32 32
6 6 7 7 6 7 10 15 16 13 12 19 24 24 25 27 28 28 30 29 29 32 32 27 25 27 27 28 30 32 32 32 34 38 42 45 46 46 43 40 39 37 32 27 23 18 13 8 7 10 11 9 9 10 10 10 10 9 9 10 11 11 12 13 15 15 15 15 16 18 21 21 21 23 26 29 31 33 33 34 33 32 31 31 30 30
Wind_Direction
274 269 266 271 285 291 289 283 281 284 285 284 282 277 278 276 272 273 273 272 270 270 268 265 266 268 266 265 260 255 251 247 247 246 245 244 243 243 244 242 242 241 241 241 237 236 233 232 235 236 239 242 244 245 234 218 214 215 213 208 204 201 201 202 199 195 193 196 199 198 199 202 201 198 196 196 197 195 196 198 197 195 200 203 200 205
262 265 279 297 306 307 298 289 285 282 278 277 277 277 276 273 275 279 277 275 267 263 266 266 266 267 265 264 259 253 250 246 243 244 242 241 241 242 243 242 242 242 241 240 236 232 230 228 228 231 236 239 239 241 235 221 215 215 214 210 205 202 202 203 201 195 193 197 200 201 205 207 205 203 200 196 196 195 195 198 200 196 201 209 204 201
260 269 312 326 319 306 290 280 275 275 275 274 274 277 274 274 280 280 276 272 263 258 266 269 269 272 271 267 261 252 247 246 241 241 241 240 240 238 239 239 239 240 240 238 235 232 230 227 224 225 232 237 237 238 237 228 218 213 214 213 207 204 202 202 202 197 195 200 203 205 209 211 210 210 206 197 195 200 200 198 200 198 203 212 206 196
287 301 333 331 309 293 283 273 271 273 274 271 270 274 274 280 282 277 279 272 262 262 271 277 275 274 273 267 260 250 244 244 239 237 239 239 238 236 235 236 235 236 237 237 235 233 232 228 224 223 228 233 235 235 234 230 218 210 212 214 209 206 203 201 200 199 200 203 204 207 211 213 213 210 205 197 194 201 205 201 198 198 205 213 208 195
287 299 316 314 297 288 283 273 274 276 275 272 270 273 274 280 281 280 287 280 269 266 265 272 274 269 267 262 258 247 238 238 237 235 237 237 235 233 233 234 234 233 234 234 234 233 232 228 225 224 227 230 232 232 231 228 219 210 209 212 211 208 204 202 200 200 203 201 198 200 204 208 207 202 197 193 191 198 204 204 201 199 204 210 210 204
296 314 308 306 304 295 288 282 282 281 281 281 276 278 278 281 283 280 282 281 274 267 254 257 269 272 270 264 261 252 233 228 231 232 233 234 234 231 229 229 230 230 230 232 234 233 232 228 225 225 227 229 230 231 230 229 223 213 208 209 212 210 207 203 200 200 201 195 192 194 194 196 195 192 198 202 203 206 207 206 204 202 206 211 215 216
294 323 290 297 309 301 291 286 286 279 271 284 319 334 294 286 284 279 280 277 273 282 276 251 264 277 277 265 258 254 242 233 230 230 231 231 232 230 227 225 226 226 226 229 233 234 233 227 223 225 227 228 229 231 230 229 224 216 210 208 211 211 209 206 200 199 201 194 193 200 200 200 203 204 212 215 214 214 212 211 210 210 211 212 218 224
292 313 308 306 309 300 295 297 310 296 264 282 17 2 292 286 285 283 284 276 275 289 281 260 260 273 276 268 264 254 248 248 242 240 238 233 231 231 229 226 225 224 223 225 229 230 230 227 224 224 225 227 228 227 226 226 221 217 213 209 211 212 209 208 204 203 205 197 194 202 203 200 204 211 218 222 219 219 218 216 217 217 214 212 218 225
339 323 327 320 309 299 307 316 326 290 261 286 337 317 291 289 287 284 283 278 282 289 279 264 262 270 272 270 268 253 243 247 245 245 247 238 231 230 229 228 225 222 220 221 224 227 228 228 223 221 224 226 223 221 224 224 219 215 212 207 209 211 208 208 206 204 209 201 194 201 204 200 202 208 215 219 219 221 220 219 222 221 212 210 219 224
324 325 328 312 301 308 316 316 307 267 262 297 320 301 288 282 279 277 275 279 287 281 274 277 274 272 279 279 272 258 246 247 249 250 248 239 231 227 226 227 224 220 218 218 220 224 224 219 215 216 221 223 220 220 223 221 215 211 209 206 207 210 208 207 205 204 209 202 195 200 206 208 210 209 210 214 216 219 219 217 222 221 211 210 219 223
285 295 303 276 282 308 319 309 290 264 271 294 296 286 286 280 273 271 270 276 279 268 269 281 280 270 279 285 272 271 269 264 269 266 254 243 234 225 221 223 222 218 214 215 216 215 214 210 209 212 217 219 215 213 213 211 211 210 207 205 206 208 208 205 203 205 209 201 197 202 204 205 210 210 210 211 212 214 216 215 216 218 215 215 219 222
298 295 154 168 271 299 312 308 295 269 268 279 279 282 291 284 270 260 255 250 251 260 278 292 287 271 265 266 261 266 279 266 267 273 267 257 243 230 221 216 218 217 213 212 212 207 205 205 205 207 211 210 203 202 204 205 205 205 204 204 204 205 204 202 201 204 207 200 199 205 204 199 205 211 212 212 212 213 214 213 213 215 216 217 221 220
350 16 109 137 223 296 313 325 323 287 267 269 274 283 289 288 280 255 241 235 242 261 288 295 286 275 260 264 272 270 267 264 264 269 266 259 251 241 226 213 212 216 214 212 208 202 199 199 200 200 202 199 193 194 200 201 197 197 201 203 204 204 200 198 200 202 204 199 200 207 208 203 206 212 213 214 215 214 212 212 213 215 214 215 219 218
356 41 115 66 343 307 298 322 328 316 301 289 286 288 285 285 285 274 267 268 266 271 293 304 286 274 265 271 282 277 279 281 275 272 266 259 253 246 237 219 209 210 214 214 211 203 196 193 196 196 193 189 189 191 193 195 194 194 199 201 202 203 198 196 198 201 202 201 202 207 209 208 210 211 212 216 217 212 210 211 214 214 212 214 219 219
331 327 69 355 342 230 280 312 312 305 295 283 285 276 271 279 276 280 289 290 290 292 296 298 269 266 276 312 320 299 297 295 282 279 273 262 255 244 237 225 210 204 208 213 213 208 199 190 189 190 187 184 186 188 188 190 191 193 198 201 202 203 199 196 199 201 202 201 201 203 203 203 206 206 209 215 216 211 209 211 212 212 212 215 218 220
323 311 276 305 301 275 307 322 301 283 287 279 277 253 254 281 267 263 276 279 286 293 287 268 258 267 282 295 296 288 284 277 263 265 266 263 258 241 231 226 215 205 203 208 210 209 203 191 183 183 185 183 181 185 186 188 190 192 197 200 202 204 201 199 201 201 200 198 197 196 195 196 199 200 203 208 211 209 208 209 209 210 212 216 217 218
330 311 300 308 300 290 324 334 309 240 297 313 271 267 280 278 262 267 274 269 267 275 274 265 272 281 287 289 287 280 284 282 255 247 250 254 254 242 229 225 222 211 203 203 206 205 201 191 185 185 185 181 179 183 185 188 191 193 196 199 201 202 202 202 203 202 198 199 199 193 191 192 193 194 195 197 202 203 203 204 207 210 213 216 216 213
321 303 309 319 314 327 323 319 287 193 245 301 325 341 316 260 241 257 275 278 267 270 277 280 287 297 305 309 320 316 320 341 325 278 260 247 243 239 232 224 224 218 206 201 201 201 199 194 189 190 192 187 181 182 186 189 192 193 195 199 201 200 199 200 204 204 199 199 200 194 191 192 191 191 191 189 191 193 195 200 205 209 212 212 210 210
307 300 311 95 331 338 314 294 316 186 219 260 315 331 318 286 277 249 265 299 295 290 292 296 300 301 307 323 335 343 359 7 356 335 308 277 245 235 233 227 223 221 211 204 202 200 199 199 194 193 196 194 186 184 186 188 191 193 194 197 199 200 199 199 203 205 200 198 201 199 197 195 192 191 191 189 184 185 192 197 200 205 206 204 203 204
319 292 302 290 308 317 304 330 14 41 205 240 303 316 284 282 289 268 278 292 293 296 295 305 311 300 320 350 340 338 348 339 332 326 312 303 275 242 236 233 228 224 219 213 211 209 204 203 199 195 197 197 192 187 185 185 187 192 195 198 198 199 198 198 201 202 198 195 200 202 199 195 193 194 194 189 180 180 187 191 193 197 198 195 194 195
335 228 280 312 321 313 344 29 18 8 7 9 1 357 334 305 285 274 276 256 267 293 295 304 309 304 333 1 348 336 335 328 321 314 305 297 278 253 239 238 235 230 226 221 218 215 210 208 204 197 195 196 193 187 185 185 185 187 192 198 201 199 197 196 198 199 196 192 194 199 196 192 192 194 193 186 177 174 178 181 183 187 188 186 185 185
348 231 269 307 324 331 20 44 25 2 360 355 13 13 342 318 313 306 295 242 246 276 283 295 298 300 322 353 346 335 329 323 318 312 304 291 274 259 248 244 241 237 233 228 224 220 215 211 206 200 195 194 193 189 185 185 185 186 187 192 198 199 197 196 195 196 196 194 191 193 195 193 192 192 189 179 171 167 168 174 178 179 179 178 177 178
341 277 268 288 301 319 37 53 52 23 1 334 9 14 339 321 330 325 317 322 298 271 271 277 274 278 303 332 324 326 323 317 313 307 301 291 275 258 247 248 246 243 240 234 229 225 220 214 208 205 200 196 195 191 186 184 185 186 186 187 191 195 198 198 197 195 195 195 194 193 195 195 192 190 184 172 165 162 165 173 177 177 176 175 174 175
343 301 299 307 300 100 89 82 108 81 13 358 321 346 341 330 325 305 286 295 295 285 293 286 271 284 332 337 319 318 319 316 312 307 301 295 284 262 246 246 249 248 245 239 232 224 221 217 210 207 205 200 196 191 187 186 185 185 184 185 188 191 195 198 199 198 196 195 197 197 197 195 191 187 179 170 166 163 167 174 178 178 176 174 174 175
336 322 336 336 339 25 81 65 115 55 3 353 308 302 324 323 320 307 284 280 272 299 321 305 285 297 317 322 319 320 322 318 314 308 298 289 285 270 251 245 247 250 246 239 232 222 216 214 210 207 206 203 198 192 189 187 186 186 185 185 187 190 192 195 197 199 200 201 203 204 205 200 191 187 181 174 172 171 173 179 181 178 177 176 175 176
312 310 338 341 340 335 326 336 337 322 332 333 314 315 328 336 338 329 310 301 302 322 321 296 285 300 307 311 318 325 325 320 316 311 301 287 279 272 261 249 243 245 245 238 230 220 212 212 211 208 205 203 200 194 192 189 186 186 186 186 188 189 190 192 194 197 201 205 208 212 215 211 197 189 187 182 181 180 179 184 186 182 178 178 178 180
299 285 340 316 291 301 301 302 297 297 315 323 325 333 335 339 341 334 327 323 314 311 302 278 284 303 307 312 320 325 324 321 316 310 303 291 278 271 266 257 246 240 240 238 230 219 210 208 210 208 205 203 200 196 193 191 189 188 186 187 190 190 189 190 193 195 197 201 202 205 210 210 203 194 191 189 189 187 183 188 193 191 186 183 184 187
294 310 356 336 284 281 279 280 276 279 293 281 313 332 335 336 338 336 329 314 306 307 305 303 309 308 305 311 320 324 323 321 317 309 299 290 281 270 262 260 253 241 235 235 230 220 211 204 203 206 205 201 200 197 194 192 191 191 190 191 191 190 189 192 196 195 193 196 197 195 199 204 204 200 197 194 191 190 189 191 196 196 194 192 191 191
296 324 354 340 310 296 290 287 279 286 277 193 302 342 339 336 339 335 319 309 307 302 293 298 305 303 299 310 322 324 321 318 316 310 297 283 278 270 257 255 254 241 230 231 230 222 213 203 197 199 202 200 197 196 195 193 191 190 192 194 195 194 195 198 200 198 194 193 197 199 198 198 200 201 201 199 194 191 194 196 199 199 196 195 196 193
324 331 351 340 312 298 310 321 319 318 231 188 339 352 344 336 338 332 311 307 303 288 282 292 300 300 304 318 323 322 319 317 315 311 302 286 276 269 254 246 248 240 227 225 228 224 215 204 194 192 196 197 195 194 194 194 191 190 191 193 195 198 201 203 201 200 199 195 197 202 200 199 202 202 200 200 196 193 194 196 201 201 196 196 198 194
339 335 340 333 301 287 330 338 334 334 196 178 343 351 345 339 342 337 321 318 318 305 297 303 305 308 322 324 317 318 321 320 319 320 321 315 300 282 256 235 237 238 227 221 223 221 214 203 192 188 190 193 193 192 193 194 192 193 195 194 194 198 203 205 201 198 201 200 196 198 199 201 205 203 198 200 198 193 194 197 202 204 198 197 198 195
343 335 331 330 327 353 4 349 331 326 217 159 353 350 348 346 343 335 324 324 324 312 310 323 327 323 321 316 312 317 323 327 329 330 329 326 320 311 286 251 242 237 228 222 219 215 210 201 191 187 188 190 190 190 191 193 192 194 197 197 195 195 201 207 204 197 198 196 190 190 195 199 203 202 199 200 197 193 194 198 202 204 201 200 197 194
348 341 338 341 334 341 358 343 321 317 325 97 3 352 348 342 334 327 322 322 322 313 323 335 330 311 311 313 315 319 325 331 329 321 316 313 311 315 309 290 270 246 228 221 216 209 204 199 190 184 186 188 188 189 190 191 193 195 198 199 197 193 197 206 207 199 196 195 189 186 191 197 202 203 199 196 193 192 193 195 199 203 204 205 198 193
349 344 340 338 322 322 335 323 302 327 11 36 9 358 349 339 333 329 320 317 319 322 330 327 312 307 314 314 315 318 323 324 315 304 300 293 287 300 302 294 288 264 232 218 214 206 197 193 187 180 181 186 186 187 188 190 193 194 196 198 196 192 192 200 203 198 194 195 193 186 185 191 195 195 193 191 188 188 190 194 199 202 203 203 197 194
349 349 340 328 323 323 328 324 329 1 22 32 8 355 346 335 329 324 312 305 320 337 337 333 326 324 326 324 328 333 332 327 318 305 308 305 296 301 295 282 280 266 232 213 211 206 194 187 182 174 174 180 184 184 184 185 188 190 190 192 191 189 187 191 196 194 188 187 188 185 185 188 190 190 190 188 185 186 188 192 197 199 198 197 196 197
348 352 346 339 346 338 335 355 5 345 1 22 359 346 343 337 333 331 319 312 340 348 341 336 329 327 331 335 339 341 337 331 326 337 352 342 331 323 307 281 267 253 225 204 203 204 192 183 177 169 169 176 182 185 182 178 182 186 186 186 187 186 183 185 191 192 186 182 184 184 185 187 190 191 189 186 185 187 188 189 192 195 195 195 196 198
356 355 349 352 4 353 340 353 358 319 328 5 352 346 348 341 333 333 322 312 340 351 342 335 329 330 336 339 340 341 340 335 334 352 352 344 338 337 327 297 250 226 209 194 193 195 187 178 170 164 171 177 179 182 181 176 177 181 180 180 181 182 182 184 187 189 188 186 183 182 183 184 186 188 187 188 189 189 189 190 192 194 194 193 194 196
9 2 357 360 7 358 348 352 4 359 358 359 348 344 343 334 326 326 313 300 349 350 338 333 329 331 337 339 339 339 341 343 347 347 343 341 343 347 346 334 208 195 190 181 180 182 179 174 166 163 174 180 177 179 182 178 173 172 175 178 180 181 185 185 183 186 192 194 189 185 184 182 183 186 186 189 192 191 190 190 191 193 193 192 194 195
18 12 8 14 17 8 1 360 6 10 11 356 345 341 340 333 326 320 302 298 354 342 332 329 330 333 339 339 335 334 342 353 350 334 337 344 352 1 7 31 116 159 167 167 171 173 167 163 161 166 177 183 182 184 185 178 171 167 171 176 180 185 189 189 184 185 193 197 195 191 187 183 184 187 188 191 193 192 191 191 192 193 193 194 196 195
22 17 14 20 20 9 5 4 12 45 21 354 346 342 339 329 321 325 343 335 334 329 326 327 331 336 341 340 335 337 349 347 334 330 342 355 7 15 26 66 107 134 152 161 167 167 159 157 164 172 179 184 187 186 181 174 170 166 169 175 182 189 192 190 185 183 187 192 194 192 189 187 186 187 189 193 194 192 191 191 191 191 196 201 201 197
16 14 16 18 12 7 8 4 5 80 37 357 347 341 334 323 316 357 4 318 316 319 323 328 332 337 344 344 343 346 346 343 344 349 356 6 17 22 35 79 111 124 142 156 161 160 157 159 165 169 174 180 183 179 172 169 168 166 169 178 186 191 192 189 184 181 184 190 193 192 191 191 191 190 190 192 192 191 191 191 191 195 202 207 204 199
5 3 15 14 1 4 11 356 349 30 22 356 346 340 340 338 341 349 321 310 314 321 327 332 335 341 348 349 349 350 349 354 2 5 6 11 18 24 33 58 101 121 133 144 151 155 161 166 170 173 178 183 183 174 167 167 168 169 174 182 190 193 192 189 187 187 189 190 190 190 190 192 194 193 190 190 191 191 192 193 196 203 208 207 203 200
3 353 8 15 1 356 5 4 358 343 349 351 348 344 356 2 345 326 320 319 323 328 332 336 339 347 353 352 350 353 356 2 7 8 9 12 19 27 33 41 63 106 135 143 148 157 165 171 176 178 183 191 190 179 173 174 172 173 178 187 193 194 192 190 190 192 194 191 187 189 191 192 193 192 189 189 191 192 197 201 204 208 208 204 200 199
11 3 3 13 8 359 3 13 2 326 334 347 351 350 351 347 337 334 334 330 329 333 338 339 341 350 358 355 352 356 2 6 9 10 12 15 19 25 31 38 46 60 99 135 154 166 165 164 170 174 181 193 194 183 180 182 180 180 185 189 191 191 193 194 193 193 194 191 188 191 192 191 192 193 191 190 191 196 203 206 206 205 204 201 200 200
18 12 348 334 357 6 356 343 343 337 338 346 350 349 348 345 343 344 344 339 335 337 342 344 344 350 360 1 359 1 6 8 10 13 15 16 19 21 27 36 44 53 74 100 142 173 172 168 176 183 187 195 198 191 187 188 189 188 188 187 186 189 193 195 196 195 193 191 191 194 194 193 194 193 192 191 192 197 202 203 202 200 199 199 200 202
19 5 328 308 347 355 246 323 345 347 347 348 350 352 352 350 350 349 348 347 344 343 346 348 347 352 2 5 5 6 7 7 10 14 16 17 19 21 26 34 42 51 69 88 112 155 177 179 183 187 190 196 199 195 189 191 194 194 192 189 187 189 191 193 194 195 193 192 193 195 196 196 195 193 191 189 189 192 197 198 198 197 196 196 199 202
29 359 343 341 349 346 328 347 350 348 348 351 353 355 355 354 354 352 351 350 349 349 352 352 350 355 4 8 9 9 9 10 13 16 17 18 19 19 23 29 36 44 54 74 106 136 164 182 187 187 186 190 196 194 190 193 196 196 194 192 191 191 192 191 192 196 196 195 194 193 194 195 194 193 192 189 187 190 194 195 196 197 198 198 199 202
3 343 343 345 345 349 357 354 349 344 346 356 359 358 356 355 354 353 353 352 351 353 356 356 355 359 5 10 12 13 13 15 17 17 18 20 21 21 21 23 28 38 50 66 98 130 147 164 184 190 188 187 191 192 191 192 194 194 194 195 194 194 192 192 193 196 196 194 192 191 192 193 193 194 192 190 192 197 198 199 201 202 201 200 198 200
318 324 339 336 336 353 3 353 349 344 343 356 1 0 358 356 355 354 355 355 353 355 358 358 359 3 8 11 14 16 17 18 19 18 20 22 22 22 22 23 26 34 45 56 68 95 137 153 162 173 182 188 191 192 192 190 190 194 198 197 194 191 191 196 197 194 192 193 193 194 196 194 192 194 195 194 195 198 198 199 201 202 201 199 197 201
331 343 348 336 339 354 353 350 351 344 337 350 356 356 356 356 356 356 357 357 356 357 358 359 1 5 8 11 15 18 19 21 21 21 22 23 24 25 24 25 29 33 38 46 56 72 108 140 151 158 170 186 194 194 196 196 197 201 201 197 195 193 193 197 199 195 194 195 197 201 203 199 194 197 201 198 195 193 194 195 198 199 200 199 200 202
360 360 348 341 343 341 340 346 348 342 335 343 349 352 355 357 358 358 359 359 358 359 1 2 4 5 6 10 15 19 21 22 24 26 25 23 24 27 28 28 32 35 35 38 46 59 74 96 135 159 171 181 183 185 192 198 200 202 200 196 196 194 192 198 201 196 193 197 201 205 207 206 204 207 206 200 193 190 189 190 194 197 199 202 204 207
Height
1480 1479 1475 1473 1470 1467 1467 1467 1467 1467 1467 1468 1467 1466 1465 1463 1459 1455 1454 1453 1456 1458 1453 1449 1446 1441 1439 1439 1438 1439 1439 1439 1439 1440 1440 1440 1441 1442 1442 1442 1441 1442 1442 1444 1446 1447 1448 1450 1450 1451 1452 1453 1454 1456 1458 1460 1461 1463 1464 1466 1469 1472 1475 1477 1480 1484 1486 1488 1492 1494 1498 1502 1506 1509 1511 1513 1516 1519 1522 1524 1526 1528 1529 1531 1533 1534
1480 1478 1472 1469 1468 1467 1467 1468 1468 1468 1467 1467 1466 1465 1462 1460 1456 1453 1452 1452 1454 1457 1451 1446 1443 1437 1435 1435 1434 1436 1435 1434 1435 1436 1436 1437 1438 1438 1438 1438 1438 1439 1440 1441 1443 1444 1445 1446 1447 1448 1448 1449 1451 1452 1454 1456 1459 1461 1462 1463 1465 1468 1471 1473 1477 1480 1482 1484 1487 1490 1494 1498 1502 1505 1507 1510 1513 1516 1519 1522 1524 1526 1527 1529 1531 1533
1475 1471 1467 1467 1468 1469 1469 1468 1468 1468 1466 1465 1464 1463 1460 1456 1454 1453 1451 1450 1452 1453 1449 1444 1442 1435 1431 1430 1429 1430 1429 1429 1430 1431 1431 1432 1433 1434 1434 1434 1435 1436 1436 1438 1440 1441 1442 1443 1444 1445 1445 1446 1448 1449 1451 1453 1456 1458 1459 1460 1462 1464 1467 1470 1473 1476 1478 1481 1485 1488 1493 1496 1499 1501 1504 1508 1511 1513 1516 1520 1523 1524 1526 1528 1529 1531
1472 1466 1465 1467 1469 1469 1468 1466 1466 1465 1463 1461 1460 1462 1459 1455 1456 1456 1451 1450 1451 1450 1447 1444 1441 1433 1428 1427 1424 1424 1423 1422 1424 1426 1426 1427 1427 1428 1428 1429 1430 1431 1433 1434 1436 1438 1439 1440 1440 1441 1442 1443 1445 1446 1448 1450 1452 1454 1456 1457 1459 1461 1463 1466 1469 1473 1476 1479 1483 1488 1492 1495 1497 1499 1502 1507 1510 1511 1514 1518 1521 1522 1524 1526 1528 1530
1472 1466 1466 1468 1468 1467 1467 1465 1464 1463 1460 1455 1454 1457 1457 1454 1456 1455 1450 1449 1449 1447 1444 1444 1442 1430 1421 1420 1416 1413 1415 1415 1418 1420 1420 1420 1421 1422 1424 1425 1426 1427 1428 1430 1432 1434 1435 1436 1437 1438 1439 1440 1441 1442 1444 1446 1448 1451 1453 1455 1456 1459 1461 1464 1466 1470 1473 1477 1481 1486 1490 1494 1496 1499 1502 1505 1507 1509 1511 1515 1518 1520 1522 1524 1526 1528
1469 1466 1468 1469 1468 1467 1466 1464 1461 1461 1458 1453 1449 1451 1454 1453 1453 1452 1451 1451 1451 1445 1437 1440 1445 1430 1414 1413 1411 1408 1409 1411 1414 1414 1414 1414 1415 1417 1418 1419 1421 1422 1424 1426 1428 1430 1431 1432 1434 1435 1436 1437 1437 1439 1441 1443 1445 1448 1450 1452 1454 1456 1459 1461 1464 1467 1469 1472 1477 1481 1485 1490 1492 1495 1499 1501 1503 1505 1508 1512 1515 1517 1519 1522 1524 1527
1468 1466 1468 1469 1467 1466 1465 1462 1459 1459 1459 1456 1450 1450 1453 1453 1452 1451 1451 1452 1452 1444 1433 1436 1445 1435 1417 1411 1409 1408 1409 1410 1410 1409 1409 1410 1411 1411 1412 1413 1415 1417 1420 1422 1424 1426 1427 1428 1430 1431 1432 1433 1434 1435 1438 1440 1442 1445 1447 1450 1452 1453 1456 1459 1462 1464 1464 1468 1475 1479 1481 1484 1487 1490 1494 1498 1501 1503 1506 1509 1512 1515 1517 1520 1523 1525
1469 1468 1466 1465 1465 1464 1462 1459 1458 1460 1462 1455 1450 1454 1455 1453 1452 1451 1450 1451 1448 1442 1435 1432 1437 1438 1425 1411 1405 1405 1407 1407 1406 1405 1404 1404 1406 1407 1408 1409 1410 1412 1415 1417 1420 1422 1424 1424 1425 1427 1428 1430 1431 1433 1436 1438 1439 1442 1444 1447 1449 1451 1453 1456 1460 1461 1460 1465 1474 1477 1478 1482 1485 1488 1491 1495 1499 1502 1504 1507 1510 1513 1515 1518 1521 1524
1467 1467 1466 1466 1468 1465 1460 1458 1459 1463 1463 1454 1452 1455 1454 1453 1453 1450 1450 1448 1444 1445 1439 1428 1431 1437 1425 1408 1400 1399 1402 1404 1402 1400 1399 1398 1400 1402 1404 1405 1406 1408 1411 1413 1416 1418 1419 1420 1421 1423 1425 1427 1429 1430 1432 1434 1436 1439 1442 1445 1447 1449 1451 1453 1456 1458 1458 1464 1471 1474 1476 1478 1482 1487 1490 1493 1497 1500 1502 1505 1508 1511 1514 1516 1519 1521
1467 1467 1467 1469 1470 1465 1460 1458 1460 1464 1462 1456 1457 1457 1453 1452 1450 1448 1449 1446 1446 1450 1441 1426 1427 1432 1419 1402 1397 1396 1396 1397 1396 1394 1393 1392 1394 1397 1399 1401 1402 1404 1407 1409 1412 1414 1416 1417 1418 1420 1421 1423 1425 1426 1429 1431 1434 1437 1439 1443 1444 1446 1448 1450 1454 1456 1457 1463 1468 1470 1473 1475 1479 1484 1488 1490 1493 1497 1500 1503 1506 1510 1512 1514 1516 1519
1465 1465 1468 1469 1468 1464 1461 1461 1460 1462 1460 1458 1459 1458 1454 1450 1446 1446 1445 1445 1452 1450 1436 1424 1422 1427 1420 1402 1396 1397 1393 1391 1392 1391 1390 1390 1390 1392 1394 1397 1399 1401 1403 1406 1409 1411 1413 1414 1414 1416 1417 1420 1421 1423 1426 1428 1431 1434 1436 1440 1442 1443 1446 1447 1451 1455 1457 1461 1464 1466 1469 1472 1476 1481 1484 1487 1490 1494 1497 1501 1504 1507 1509 1511 1514 1517
1459 1460 1463 1467 1467 1465 1464 1462 1459 1459 1460 1459 1459 1458 1458 1451 1445 1447 1446 1449 1457 1446 1428 1422 1420 1424 1421 1403 1392 1394 1392 1391 1393 1392 1391 1390 1389 1389 1391 1393 1396 1398 1400 1403 1406 1408 1409 1410 1410 1413 1414 1416 1418 1420 1422 1425 1428 1431 1433 1437 1439 1441 1443 1445 1449 1453 1455 1459 1461 1462 1466 1470 1474 1478 1481 1484 1487 1490 1494 1497 1500 1503 1506 1509 1512 1514
1457 1458 1461 1465 1467 1467 1467 1465 1462 1460 1460 1461 1460 1461 1463 1457 1450 1450 1448 1448 1449 1437 1424 1421 1421 1422 1415 1398 1389 1390 1390 1390 1390 1389 1390 1390 1389 1389 1389 1390 1393 1396 1397 1400 1403 1405 1406 1407 1407 1409 1411 1413 1415 1416 1418 1422 1425 1428 1431 1434 1436 1438 1440 1443 1446 1450 1453 1456 1458 1460 1464 1468 1473 1477 1479 1482 1485 1488 1491 1494 1496 1500 1503 1506 1509 1512
1465 1460 1461 1465 1466 1467 1468 1470 1469 1465 1464 1465 1464 1466 1465 1461 1458 1454 1445 1441 1438 1430 1422 1421 1426 1422 1407 1392 1387 1387 1388 1387 1387 1387 1388 1388 1389 1390 1389 1389 1390 1393 1396 1399 1401 1402 1403 1404 1405 1407 1408 1410 1411 1413 1416 1419 1422 1425 1428 1431 1434 1436 1438 1441 1444 1448 1451 1453 1455 1458 1462 1467 1471 1474 1476 1479 1483 1485 1487 1490 1493 1497 1500 1503 1506 1509
1478 1470 1464 1466 1467 1467 1468 1469 1470 1469 1468 1465 1463 1467 1467 1462 1463 1457 1446 1442 1437 1429 1424 1426 1430 1419 1401 1391 1385 1385 1387 1387 1388 1388 1388 1388 1388 1389 1390 1389 1389 1390 1394 1397 1398 1400 1402 1402 1403 1404 1406 1407 1408 1410 1413 1416 1419 1422 1425 1428 1431 1434 1436 1439 1442 1445 1447 1450 1453 1457 1461 1465 1468 1470 1472 1476 1480 1481 1484 1487 1491 1494 1498 1501 1504 1507
1480 1473 1465 1464 1465 1466 1466 1465 1467 1469 1468 1463 1461 1466 1467 1461 1461 1458 1449 1444 1441 1436 1431 1428 1422 1406 1393 1387 1383 1385 1386 1384 1386 1387 1387 1388 1387 1388 1389 1388 1388 1388 1390 1394 1396 1398 1400 1401 1402 1403 1404 1405 1406 1408 1410 1413 1416 1419 1422 1425 1428 1431 1434 1437 1439 1442 1444 1447 1451 1455 1459 1462 1464 1466 1468 1472 1475 1477 1481 1484 1488 1492 1495 1498 1501 1506
1482 1472 1461 1462 1463 1462 1464 1464 1465 1468 1466 1462 1460 1462 1461 1458 1460 1460 1451 1444 1446 1446 1432 1421 1413 1399 1391 1388 1381 1382 1383 1379 1382 1383 1384 1386 1386 1387 1388 1387 1388 1387 1388 1391 1393 1396 1398 1399 1400 1401 1402 1404 1405 1406 1407 1410 1414 1416 1419 1423 1426 1429 1432 1435 1437 1439 1442 1445 1449 1452 1456 1459 1462 1464 1466 1470 1472 1474 1478 1481 1485 1489 1493 1496 1500 1503
1489 1477 1459 1461 1464 1460 1462 1463 1462 1466 1466 1463 1461 1460 1458 1456 1457 1461 1456 1446 1444 1441 1424 1413 1410 1401 1396 1392 1382 1380 1382 1380 1380 1381 1381 1383 1384 1385 1386 1386 1387 1387 1387 1389 1391 1394 1396 1397 1398 1400 1401 1402 1403 1404 1406 1408 1411 1414 1418 1421 1423 1426 1429 1432 1434 1437 1441 1444 1447 1450 1452 1456 1460 1463 1466 1469 1471 1472 1474 1478 1482 1486 1491 1494 1498 1500
1492 1483 1462 1458 1463 1460 1460 1460 1460 1463 1464 1464 1463 1461 1461 1459 1458 1459 1458 1448 1441 1436 1422 1411 1409 1402 1397 1394 1387 1383 1385 1384 1383 1383 1382 1381 1382 1383 1384 1385 1386 1387 1388 1389 1390 1393 1394 1395 1397 1398 1400 1401 1402 1404 1405 1407 1409 1412 1416 1419 1421 1424 1426 1429 1433 1436 1440 1444 1447 1449 1452 1455 1459 1462 1466 1469 1469 1469 1471 1475 1479 1484 1488 1492 1495 1496
1488 1489 1472 1458 1459 1460 1457 1457 1460 1461 1461 1463 1464 1463 1465 1465 1461 1458 1454 1448 1443 1439 1428 1417 1412 1404 1394 1392 1393 1389 1388 1387 1387 1386 1384 1382 1381 1382 1383 1383 1385 1386 1387 1388 1389 1390 1392 1393 1395 1397 1399 1400 1401 1403 1404 1406 1408 1410 1413 1417 1420 1423 1425 1429 1432 1435 1438 1442 1446 1449 1452 1455 1458 1462 1466 1467 1465 1465 1468 1472 1477 1481 1486 1489 1491 1494
1484 1492 1481 1460 1454 1457 1457 1458 1462 1464 1463 1463 1464 1464 1465 1462 1459 1457 1450 1443 1444 1442 1434 1426 1418 1403 1392 1393 1395 1392 1390 1390 1389 1387 1385 1383 1381 1380 1382 1382 1383 1384 1385 1387 1388 1388 1390 1392 1393 1395 1398 1399 1401 1402 1404 1406 1407 1409 1412 1415 1418 1421 1424 1427 1431 1434 1437 1441 1445 1448 1452 1456 1459 1463 1465 1464 1462 1463 1465 1470 1475 1479 1483 1486 1488 1491
1482 1488 1483 1470 1460 1457 1457 1459 1463 1465 1465 1465 1465 1466 1468 1464 1460 1457 1446 1438 1442 1444 1437 1433 1425 1408 1396 1396 1396 1394 1395 1394 1392 1391 1387 1384 1381 1380 1380 1381 1382 1383 1383 1385 1386 1387 1388 1390 1392 1394 1396 1398 1400 1401 1403 1405 1407 1409 1411 1414 1417 1420 1423 1426 1429 1433 1437 1440 1443 1447 1451 1456 1460 1463 1463 1461 1459 1460 1463 1468 1474 1478 1481 1484 1486 1489
1479 1482 1482 1476 1463 1455 1456 1459 1462 1463 1464 1466 1467 1469 1471 1467 1464 1462 1451 1443 1444 1441 1433 1434 1432 1413 1397 1397 1398 1397 1398 1397 1394 1393 1389 1385 1382 1379 1379 1380 1381 1381 1382 1383 1385 1386 1387 1388 1390 1392 1394 1396 1398 1400 1402 1403 1405 1408 1410 1413 1416 1418 1421 1425 1428 1431 1436 1439 1442 1446 1450 1455 1458 1460 1459 1456 1456 1458 1462 1469 1474 1477 1480 1482 1485 1488
1475 1476 1477 1467 1451 1449 1457 1461 1463 1464 1464 1467 1468 1470 1471 1468 1467 1466 1458 1453 1449 1439 1432 1434 1428 1408 1395 1397 1399 1398 1397 1396 1394 1392 1389 1386 1382 1379 1377 1378 1378 1379 1379 1381 1382 1384 1385 1386 1388 1390 1392 1394 1396 1398 1401 1402 1404 1407 1409 1411 1414 1417 1420 1423 1427 1430 1434 1437 1441 1445 1449 1452 1454 1455 1453 1453 1454 1457 1463 1469 1473 1476 1479 1481 1483 1486
1477 1475 1474 1466 1456 1454 1457 1459 1462 1463 1465 1469 1471 1472 1472 1470 1468 1462 1455 1455 1449 1439 1437 1438 1425 1406 1397 1398 1398 1396 1395 1393 1392 1390 1388 1386 1383 1379 1376 1375 1376 1376 1376 1377 1379 1381 1383 1384 1385 1387 1389 1392 1394 1396 1399 1401 1403 1405 1407 1410 1413 1416 1419 1422 1426 1429 1432 1436 1440 1443 1446 1448 1449 1449 1449 1451 1454 1458 1463 1468 1472 1474 1477 1479 1481 1484
1481 1478 1477 1478 1475 1469 1464 1465 1468 1468 1469 1471 1471 1471 1470 1468 1467 1461 1454 1451 1445 1438 1439 1438 1425 1408 1401 1400 1398 1396 1395 1392 1390 1388 1386 1383 1382 1379 1375 1373 1373 1373 1373 1374 1375 1378 1380 1381 1383 1385 1387 1389 1392 1394 1396 1399 1402 1404 1406 1409 1411 1414 1418 1421 1424 1427 1430 1434 1438 1441 1442 1444 1446 1447 1448 1450 1454 1459 1463 1467 1470 1472 1474 1476 1479 1482
1480 1477 1477 1483 1485 1480 1477 1476 1474 1473 1475 1473 1471 1471 1470 1467 1466 1463 1456 1450 1447 1444 1438 1430 1425 1417 1406 1400 1397 1395 1394 1392 1388 1385 1383 1380 1378 1376 1374 1371 1370 1370 1371 1371 1372 1374 1376 1378 1381 1382 1384 1386 1389 1392 1394 1397 1399 1402 1404 1407 1410 1413 1416 1419 1422 1425 1428 1431 1435 1438 1440 1441 1443 1445 1447 1450 1454 1458 1462 1465 1468 1470 1472 1475 1478 1481
1481 1476 1472 1478 1483 1480 1478 1475 1472 1472 1474 1475 1474 1473 1470 1467 1465 1462 1458 1454 1451 1447 1433 1421 1424 1424 1412 1403 1399 1395 1391 1388 1384 1382 1379 1376 1374 1373 1372 1370 1368 1367 1367 1368 1368 1370 1372 1375 1378 1380 1382 1384 1387 1389 1392 1395 1398 1400 1402 1405 1408 1411 1415 1417 1420 1422 1426 1429 1432 1435 1437 1438 1440 1443 1446 1449 1452 1456 1460 1463 1466 1469 1472 1474 1476 1479
1481 1475 1470 1474 1478 1475 1470 1467 1465 1466 1469 1474 1475 1474 1470 1467 1464 1462 1458 1454 1452 1449 1437 1426 1426 1424 1414 1405 1401 1395 1389 1384 1380 1377 1374 1372 1370 1368 1368 1367 1365 1363 1363 1365 1365 1366 1368 1371 1374 1377 1380 1382 1384 1387 1390 1393 1396 1398 1401 1403 1406 1409 1412 1414 1417 1420 1423 1425 1428 1432 1434 1434 1437 1441 1446 1448 1451 1454 1458 1461 1464 1467 1470 1473 1475 1478
1477 1472 1469 1471 1474 1471 1465 1460 1458 1459 1465 1471 1473 1471 1469 1466 1462 1460 1457 1452 1449 1446 1439 1431 1426 1418 1410 1405 1400 1393 1387 1381 1375 1372 1369 1366 1365 1363 1363 1363 1362 1360 1359 1361 1362 1363 1365 1367 1370 1374 1378 1380 1382 1385 1388 1391 1394 1396 1399 1402 1404 1407 1410 1412 1415 1417 1420 1422 1425 1428 1430 1430 1433 1439 1444 1447 1449 1452 1456 1459 1462 1465 1468 1471 1473 1475
1477 1472 1468 1467 1468 1466 1461 1458 1455 1455 1462 1469 1470 1468 1466 1462 1456 1454 1452 1448 1445 1441 1435 1431 1423 1411 1404 1403 1397 1389 1383 1378 1371 1366 1363 1361 1360 1359 1358 1358 1359 1358 1356 1357 1359 1360 1362 1364 1367 1370 1374 1377 1380 1383 1386 1389 1392 1394 1397 1400 1403 1405 1408 1410 1413 1415 1417 1419 1422 1425 1426 1427 1431 1437 1442 1444 1447 1451 1454 1457 1459 1462 1466 1469 1471 1473
1477 1474 1467 1463 1463 1458 1455 1457 1457 1454 1458 1466 1469 1467 1464 1460 1456 1452 1449 1447 1444 1440 1433 1426 1419 1412 1405 1401 1394 1385 1379 1373 1367 1362 1359 1358 1357 1356 1354 1354 1355 1355 1353 1354 1355 1357 1358 1361 1363 1366 1371 1374 1378 1381 1384 1387 1390 1392 1395 1398 1401 1404 1406 1408 1411 1413 1415 1417 1420 1423 1423 1425 1430 1435 1439 1442 1445 1449 1453 1455 1458 1460 1463 1466 1468 1471
1476 1475 1470 1467 1463 1454 1450 1456 1458 1453 1456 1465 1471 1469 1466 1462 1459 1455 1449 1445 1443 1441 1436 1430 1426 1419 1411 1402 1394 1385 1377 1371 1366 1362 1359 1357 1355 1354 1352 1352 1351 1350 1350 1351 1352 1353 1355 1358 1360 1364 1368 1372 1375 1379 1382 1385 1388 1391 1393 1396 1399 1402 1404 1406 1409 1411 1414 1416 1419 1421 1422 1425 1430 1435 1439 1442 1445 1448 1451 1453 1456 1458 1461 1464 1466 1469
1478 1476 1473 1471 1467 1456 1449 1450 1453 1454 1460 1469 1472 1470 1468 1465 1460 1456 1449 1442 1440 1440 1438 1435 1429 1421 1412 1404 1396 1387 1378 1372 1366 1361 1359 1357 1355 1352 1349 1348 1346 1345 1345 1347 1349 1350 1353 1356 1359 1362 1366 1370 1374 1378 1381 1384 1387 1390 1393 1396 1398 1400 1403 1405 1407 1410 1413 1415 1417 1420 1423 1426 1431 1436 1439 1442 1445 1447 1449 1451 1454 1456 1459 1462 1464 1467
1480 1477 1475 1471 1465 1457 1447 1443 1451 1459 1463 1467 1468 1468 1468 1465 1460 1456 1448 1439 1437 1437 1433 1429 1422 1415 1409 1401 1393 1385 1377 1368 1361 1358 1356 1355 1353 1350 1345 1341 1340 1339 1340 1344 1347 1348 1350 1354 1357 1360 1364 1369 1373 1376 1380 1383 1386 1389 1393 1395 1397 1399 1402 1405 1407 1410 1413 1415 1418 1421 1425 1428 1432 1436 1439 1441 1443 1445 1447 1449 1452 1455 1458 1460 1462 1465
1481 1478 1476 1470 1465 1461 1451 1447 1456 1462 1459 1461 1465 1464 1462 1458 1455 1453 1444 1435 1434 1435 1432 1427 1420 1412 1406 1398 1389 1382 1374 1364 1357 1354 1353 1350 1346 1342 1338 1334 1333 1333 1334 1338 1343 1346 1348 1353 1356 1359 1363 1367 1372 1375 1378 1382 1385 1388 1391 1394 1397 1399 1402 1404 1406 1409 1413 1416 1419 1422 1425 1429 1432 1435 1437 1438 1439 1442 1445 1448 1451 1453 1455 1457 1459 1462
1480 1477 1474 1470 1470 1469 1461 1453 1454 1456 1457 1463 1465 1462 1460 1459 1456 1455 1450 1438 1434 1434 1432 1428 1421 1411 1404 1396 1387 1380 1372 1361 1354 1351 1349 1346 1340 1334 1329 1326 1325 1326 1329 1335 1341 1345 1349 1353 1356 1359 1362 1366 1371 1374 1378 1381 1384 1388 1391 1394 1396 1399 1401 1404 1406 1408 1411 1414 1417 1420 1423 1426 1429 1431 1434 1436 1438 1441 1443 1446 1449 1451 1452 1455 1457 1459
1480 1477 1472 1472 1473 1471 1464 1457 1456 1460 1466 1472 1470 1465 1465 1462 1456 1456 1455 1443 1434 1434 1433 1430 1424 1415 1407 1399 1390 1382 1373 1364 1357 1353 1350 1346 1339 1332 1326 1322 1321 1324 1328 1334 1341 1345 1350 1354 1357 1360 1363 1367 1371 1374 1378 1381 1384 1387 1390 1393 1395 1398 1401 1403 1404 1406 1409 1412 1415 1418 1420 1423 1426 1428 1431 1434 1437 1439 1442 1444 1446 1448 1450 1453 1455 1457
1480 1477 1473 1474 1475 1473 1469 1464 1464 1470 1475 1476 1473 1466 1462 1458 1452 1451 1449 1439 1433 1435 1434 1430 1426 1419 1411 1405 1397 1388 1381 1373 1367 1360 1353 1347 1340 1333 1329 1325 1324 1326 1330 1336 1342 1346 1351 1355 1358 1361 1364 1368 1371 1375 1378 1381 1384 1387 1389 1392 1395 1397 1400 1402 1403 1405 1407 1410 1413 1416 1418 1421 1424 1427 1429 1432 1435 1438 1440 1442 1444 1446 1449 1451 1453 1455
1482 1479 1476 1477 1479 1476 1473 1467 1466 1473 1478 1477 1473 1468 1462 1456 1450 1447 1447 1442 1438 1439 1436 1431 1426 1420 1414 1408 1400 1392 1387 1383 1376 1367 1359 1352 1344 1337 1334 1332 1331 1332 1335 1340 1344 1348 1352 1355 1358 1362 1366 1369 1372 1375 1378 1381 1384 1386 1389 1391 1394 1397 1399 1401 1403 1405 1407 1409 1412 1415 1417 1420 1423 1425 1428 1431 1434 1436 1438 1440 1442 1444 1446 1448 1450 1452
1486 1484 1480 1482 1483 1479 1477 1472 1467 1470 1477 1477 1473 1470 1463 1453 1448 1455 1462 1458 1449 1443 1439 1433 1428 1421 1415 1409 1402 1395 1391 1387 1381 1371 1362 1355 1348 1342 1340 1339 1338 1339 1341 1344 1347 1350 1353 1356 1360 1364 1368 1371 1374 1376 1379 1382 1384 1386 1389 1391 1394 1396 1398 1400 1402 1404 1406 1408 1411 1413 1416 1418 1421 1423 1426 1429 1432 1434 1436 1438 1439 1441 1442 1444 1447 1449
1493 1489 1485 1488 1489 1482 1481 1481 1474 1471 1475 1477 1475 1472 1465 1458 1461 1469 1471 1463 1454 1448 1441 1435 1430 1423 1416 1410 1403 1398 1392 1385 1378 1371 1364 1358 1352 1348 1345 1345 1345 1345 1346 1348 1351 1353 1355 1358 1362 1366 1369 1372 1375 1378 1380 1382 1385 1387 1389 1391 1393 1396 1398 1400 1401 1403 1405 1407 1410 1412 1415 1417 1419 1422 1424 1427 1430 1432 1433 1435 1436 1437 1440 1442 1444 1446
1497 1494 1491 1494 1493 1487 1486 1490 1490 1484 1481 1479 1478 1474 1470 1471 1475 1474 1467 1460 1455 1450 1443 1437 1432 1426 1420 1412 1405 1400 1393 1385 1378 1372 1367 1362 1357 1352 1350 1349 1349 1350 1351 1352 1354 1356 1358 1361 1364 1368 1371 1373 1376 1379 1381 1383 1385 1387 1389 1391 1393 1395 1397 1399 1401 1402 1404 1406 1409 1411 1413 1416 1418 1420 1422 1424 1427 1428 1430 1431 1433 1435 1438 1440 1442 1445
1498 1498 1497 1496 1494 1492 1493 1497 1498 1494 1486 1483 1483 1481 1478 1478 1476 1471 1465 1459 1454 1449 1444 1439 1433 1428 1424 1417 1408 1402 1395 1388 1382 1376 1370 1365 1361 1357 1355 1352 1352 1353 1354 1356 1357 1358 1361 1364 1366 1369 1372 1374 1377 1379 1381 1383 1385 1387 1389 1391 1393 1395 1397 1398 1400 1401 1403 1405 1407 1410 1412 1414 1416 1418 1420 1422 1423 1425 1426 1428 1431 1433 1436 1438 1441 1443
1501 1501 1502 1500 1495 1494 1497 1497 1495 1491 1487 1486 1486 1483 1480 1478 1474 1469 1465 1460 1455 1450 1446 1440 1434 1430 1426 1420 1413 1406 1398 1392 1386 1381 1375 1369 1365 1362 1360 1357 1356 1356 1356 1359 1361 1362 1363 1366 1368 1371 1373 1375 1377 1379 1381 1383 1385 1387 1390 1392 1394 1395 1397 1398 1399 1400 1402 1404 1406 1408 1410 1412 1415 1417 1418 1419 1420 1422 1424 1426 1429 1432 1434 1437 1439 1441
1502 1501 1501 1499 1495 1494 1495 1494 1491 1489 1488 1487 1485 1483 1480 1477 1473 1469 1465 1460 1457 1452 1447 1442 1437 1432 1428 1423 1416 1410 1404 1397 1390 1385 1379 1374 1369 1366 1364 1362 1361 1360 1359 1360 1362 1364 1366 1368 1370 1372 1374 1376 1377 1379 1381 1383 1385 1387 1389 1391 1393 1395 1396 1397 1398 1399 1401 1403 1405 1407 1409 1411 1413 1414 1415 1417 1418 1420 1422 1425 1428 1430 1433 1435 1438 1439
1500 1499 1498 1497 1495 1494 1494 1492 1489 1488 1487 1485 1483 1482 1479 1477 1473 1469 1465 1461 1458 1453 1448 1444 1439 1435 1431 1426 1419 1414 1408 1401 1394 1388 1384 1379 1375 1371 1368 1366 1364 1364 1363 1363 1363 1365 1368 1369 1371 1372 1374 1375 1377 1379 1381 1383 1385 1387 1388 1390 1392 1393 1394 1396 1397 1398 1400 1402 1403 1405 1407 1409 1411 1412 1413 1415 1417 1418 1420 1423 1426 1428 1430 1433 1435 1437
1499 1499 1497 1496 1494 1493 1493 1492 1490 1488 1486 1484 1483 1481 1478 1476 1473 1470 1466 1462 1458 1454 1449 1445 1441 1437 1433 1428 1423 1419 1413 1407 1401 1395 1391 1386 1381 1377 1374 1372 1369 1367 1366 1365 1366 1367 1367 1369 1371 1373 1374 1375 1377 1378 1380 1382 1384 1385 1387 1388 1390 1391 1393 1394 1396 1397 1399 1400 1402 1404 1405 1407 1409 1410 1411 1413 1414 1416 1418 1421 1423 1425 1427 1430 1432 1434
1500 1499 1498 1496 1493 1491 1492 1492 1490 1487 1484 1483 1482 1481 1479 1476 1473 1470 1466 1463 1459 1455 1450 1446 1442 1439 1434 1430 1427 1423 1418 1413 1408 1402 1396 1391 1386 1382 1379 1377 1374 1371 1369 1368 1368 1369 1369 1369 1370 1372 1375 1376 1376 1377 1379 1381 1382 1383 1384 1386 1387 1389 1391 1393 1394 1396 1397 1399 1400 1402 1403 1405 1407 1409 1409 1410 1411 1414 1416 1419 1421 1424 1426 1428 1430 1432
1499 1498 1498 1496 1494 1493 1493 1492 1491 1489 1486 1482 1481 1481 1479 1476 1473 1470 1466 1462 1459 1455 1451 1447 1443 1440 1437 1433 1430 1426 1422 1418 1413 1408 1402 1397 1393 1389 1386 1382 1377 1374 1372 1371 1370 1370 1370 1370 1370 1371 1373 1374 1375 1377 1378 1379 1380 1381 1382 1384 1385 1387 1390 1391 1392 1393 1395 1397 1399 1400 1401 1403 1405 1406 1407 1408 1409 1412 1414 1417 1419 1422 1425 1426 1428 1431
1500 1500 1499 1497 1496 1495 1494 1493 1492 1490 1487 1485 1483 1481 1479 1477 1474 1470 1467 1463 1460 1457 1453 1449 1445 1442 1438 1435 1432 1429 1426 1422 1418 1413 1407 1402 1397 1394 1390 1386 1381 1378 1376 1374 1372 1371 1370 1371 1371 1370 1371 1372 1373 1375 1376 1377 1379 1380 1382 1383 1385 1386 1388 1389 1390 1391 1393 1394 1395 1396 1398 1400 1402 1403 1405 1406 1408 1410 1412 1414 1417 1420 1422 1425 1428 1430